Location: Newark
(52.3500°N, 175.9667°E)
Time: 01:39:28
(UTC+00:00)

S-56A Canister/Altair - Pass Details

Date: 28 April 2021
Orbit: 631 x 2501 km, 38.9° (Epoch: 18 May)

Event Time Altitude Azimuth Distance (km) Brightness Sun altitude
Rises 09:20:43 0° 232° (SW) 5,584 12.0 -13.7°
Reaches altitude 10° 09:25:20 10° 223° (SW) 4,292 11.3 -14.1°
Maximum altitude 09:34:10 29° 170° (S) 2,442 9.6 -15.0°
Enters shadow 09:38:05 20° 130° (SE) 2,583 9.6 -15.4°
